Temp_Advection
nan nan nan nan nan nan nan nan nan nan nan nan nan nan nan nan nan nan nan nan nan nan
nan -1 -1 -1 -1 -0 -0 -0 0 1 1 0 0 0 0 0 0 0 0 -0 -0 nan
nan -1 -1 -1 -0 -0 -0 0 1 0 -0 -0 0 0 0 0 0 0 0 0 0 nan
nan -1 -1 -0 -0 0 0 0 -0 0 0 -1 -0 -0 0 0 -0 -0 -0 0 0 nan
nan -0 -0 -0 0 0 0 0 -0 -0 -0 -0 -0 -0 0 0 0 0 0 -0 -0 nan
nan -1 -0 0 0 0 0 0 0 -0 -0 -0 -0 -0 -0 0 0 0 -0 -0 -0 nan
nan -1 -0 0 0 0 0 0 0 0 -0 -1 -0 -0 -0 -0 -0 -0 -0 0 0 nan
nan -1 -0 0 0 0 0 0 0 -0 -0 -0 -0 -0 -0 -0 -0 -1 -0 -0 0 nan
nan -0 -0 -0 -0 -0 -0 -0 -0 0 -0 -0 0 0 0 -0 -0 -0 -0 -1 -1 nan
nan -0 -0 -0 -0 -0 0 0 0 -0 -0 -0 -0 -0 -0 0 0 -0 0 -0 -0 nan
nan 0 0 0 0 -0 -0 -0 -0 -0 -0 -0 -0 -0 -0 -0 0 0 -0 -0 -0 nan
nan -0 -0 -0 -0 -0 -0 -0 -0 -0 -0 -1 -1 -0 -0 -0 -0 -1 -1 -0 -0 nan
nan -0 -0 -0 -0 -0 -0 -0 -0 -0 -0 -0 -1 -0 -0 -0 -1 -0 -1 -1 -0 nan
nan nan nan nan nan nan nan nan nan nan nan nan nan nan nan nan nan nan nan nan nan nan
Wind_Speed
27 31 35 37 37 33 31 32 31 26 19 16 18 18 12 10 11 16 17 16 18 18
34 38 41 41 34 27 27 29 22 13 11 5 7 16 20 25 30 24 22 18 15 15
39 42 42 40 26 22 25 20 9 5 9 17 23 24 24 12 13 15 13 15 18 22
42 43 42 28 18 17 13 6 5 15 18 17 14 10 11 13 13 17 20 21 24 27
42 39 27 18 9 6 6 5 11 10 8 10 15 18 19 20 22 25 26 28 30 30
37 30 18 9 9 9 9 9 9 13 15 15 17 20 21 23 24 27 30 32 33 31
28 24 14 7 9 9 10 18 22 17 18 21 21 21 24 27 30 32 32 31 31 31
20 18 12 12 14 16 22 26 25 22 23 23 26 30 31 30 28 29 31 32 34 34
16 15 11 12 11 12 17 21 26 24 24 26 28 28 26 27 28 30 32 35 37 37
9 11 15 19 20 22 24 23 22 25 27 27 27 26 27 28 32 34 34 33 33 32
18 17 17 19 20 21 22 24 24 24 25 25 26 28 31 31 31 30 30 30 30 28
19 19 21 23 22 22 22 23 24 23 25 28 30 30 29 28 30 30 29 27 23 23
20 22 22 23 23 23 24 23 23 26 27 28 29 29 27 26 30 29 27 24 25 22
23 22 22 22 22 22 22 25 26 27 27 27 28 28 25 26 23 22 25 27 25 23
Wind_Direction
319 322 323 325 323 313 310 310 313 310 292 248 211 200 213 231 280 310 311 309 291 291
324 325 323 321 321 304 305 305 301 270 215 226 279 281 287 306 323 330 337 337 334 322
325 325 324 324 313 302 299 289 261 253 300 309 307 302 308 317 322 323 318 309 303 299
326 329 326 318 311 288 274 221 281 308 296 308 309 328 316 308 301 297 295 295 296 295
325 324 324 321 285 219 229 280 309 299 299 316 325 318 311 306 303 301 300 300 300 299
325 325 322 289 239 219 238 262 276 302 322 306 290 296 301 300 298 299 301 301 299 297
329 338 324 255 235 248 268 283 283 293 297 293 294 298 300 300 299 300 300 299 297 294
335 334 311 272 267 267 277 287 299 292 295 296 295 298 301 302 302 301 299 296 294 294
326 327 338 325 346 340 331 323 315 308 299 298 298 304 308 308 305 303 301 300 300 301
347 0 347 335 332 316 311 309 301 299 302 307 311 313 312 310 306 304 302 303 306 307
327 334 324 317 315 310 307 305 307 309 309 311 314 315 312 312 308 306 307 308 308 307
325 324 322 320 319 317 318 318 317 319 319 317 319 320 320 316 312 311 311 311 313 315
322 322 324 322 322 322 321 321 321 319 318 322 324 325 323 319 316 317 318 317 318 320
323 328 326 323 322 324 326 323 322 321 324 328 326 328 325 326 322 318 317 317 320 321
Height
1501 1496 1490 1484 1479 1475 1470 1466 1462 1459 1455 1454 1453 1454 1454 1455 1456 1454 1452 1456 1457 1458
1495 1488 1482 1478 1472 1468 1465 1462 1457 1457 1456 1456 1455 1454 1452 1450 1449 1447 1447 1451 1451 1452
1488 1482 1474 1469 1465 1463 1462 1459 1457 1458 1458 1457 1454 1451 1450 1450 1449 1447 1449 1450 1450 1450
1481 1473 1467 1460 1458 1459 1459 1460 1458 1456 1455 1454 1452 1450 1449 1449 1449 1448 1448 1447 1446 1445
1474 1468 1460 1455 1455 1458 1459 1457 1455 1453 1453 1451 1450 1449 1447 1446 1445 1443 1442 1440 1438 1435
1470 1464 1458 1453 1454 1455 1454 1453 1451 1450 1450 1449 1447 1445 1443 1441 1439 1437 1434 1432 1429 1426
1466 1462 1458 1455 1452 1453 1453 1451 1450 1448 1446 1445 1443 1440 1437 1435 1432 1429 1427 1423 1421 1418
1463 1459 1458 1455 1452 1452 1451 1449 1446 1444 1443 1440 1438 1435 1432 1428 1425 1422 1419 1416 1413 1410
1461 1459 1455 1454 1451 1448 1448 1446 1444 1441 1438 1436 1432 1429 1425 1421 1417 1414 1410 1406 1403 1399
1459 1456 1456 1453 1450 1448 1446 1443 1440 1438 1434 1430 1426 1422 1418 1415 1411 1406 1401 1397 1393 1389
1457 1454 1452 1449 1447 1444 1441 1438 1435 1432 1428 1424 1420 1416 1412 1407 1402 1398 1394 1391 1387 1382
1456 1452 1448 1445 1442 1439 1436 1433 1430 1427 1423 1418 1414 1409 1405 1399 1394 1390 1387 1384 1380 1377
1453 1448 1444 1441 1438 1435 1432 1429 1426 1422 1418 1413 1408 1404 1399 1394 1388 1383 1380 1378 1374 1372
1450 1445 1441 1438 1435 1431 1428 1425 1421 1416 1413 1409 1404 1398 1394 1389 1384 1380 1376 1372 1368 1365